sat.trackr.live / text

‹ back to catalog

OPTUS 10

NORAD 40146 · 2014-054A

PAYLOAD ACTIVE UNKNOWN

§ Identity

Operator
Country
AUS
Launch date
2014-09-11
Launch site
FRGUI
Launch vehicle
Mass (kg)
RCS (m²)
51.58

Purposes: comms

External: N2YO · Heavens-Above · Gunter

§ Orbital elements

Epoch: 2026-09-19T05:44:17.387232Z

Period
1,436.08 min
Inclination
0.0232°
Eccentricity
0.0001939
Mean motion
1.00272618 rev/d
Perigee alt
35,778.2 km
Apogee alt
35,794.5 km
Semi-major
42,164.5 km
B*
0.0000e+0
RAAN
210.4743°
Arg perigee
324.9797°
Mean anomaly
64.7888°
Rev number
4,397

§ Raw data

OPTUS 101 40146U 14054A   26262.23909013 -.00000151  00000+0  00000+0 0  99902 40146   0.0232 210.4743 0001939 324.9797  64.7888  1.00272618 43979

JSON: /api/v1/satellites/40146 · /tle

For live sub-satellite position, see the globe view (requires WebGL).

§ Visibility from observer

Set your observer location to see the next 7 days of passes ≥ 10°. The values pass through the URL so the page stays shareable.

No JS? Fill the form by hand. The geolocation button needs JavaScript.